Winona, MN

2:46 PM CDT on September 19, 2017 (GMT -0500)
Winona Municipal-Conrad

Weather History for KONA - January, 2013

Change the Weather History Date:

Wednesday, January 23, 2013

  Actual Average Record
Temperature  
Mean Temperature 10 °F -  
Max Temperature 19 °F 31 °F 39 °F (1975)
Min Temperature 0 °F 12 °F -13 °F (2011)
Degree Days  
Heating Degree Days 56    
Moisture  
Dew Point 1 °F    
Average Humidity 62    
Maximum Humidity 79    
Minimum Humidity 43    
Precipitation  
Precipitation 0.00 in - - ()
Sea Level Pressure  
Sea Level Pressure 30.26 in    
Wind  
Wind Speed 4 mph (NW)    
Max Wind Speed 23 mph    
Max Gust Speed 31 mph    
Visibility 9 miles    
Events Snow    
Averages and records for this station are not official NWS values.
T = Trace of Precipitation, MM = Missing Value Source: NWS Daily Summary

Daily Weather History Graph

Daily Weather History Graph

Search for Another Location

Airport or City:

Trip Planner

Search our weather history database for the weather conditions in past years. The results will help you decide how hot, cold, wet, or windy it might be!

Date:

Astronomy

Jan. 23, 2013 Rise Set
Actual Time 7:32 AM CST 5:05 PM CST
Civil Twilight 7:01 AM CST 5:36 PM CST
Nautical Twilight 6:26 AM CST 6:11 PM CST
Astronomical Twilight 5:52 AM CST 6:46 PM CST
Moon 2:14 PM CST (1/23) 4:46 AM CST (1/23)
Length of Visible Light 10h 35m
Length of Day
9h 32m
Waxing Gibbous, 89% of the Moon is Illuminated
Jan 23
Waxing Gibbous
Jan 26
Full
Feb 3
Last Quarter
Feb 10
New
Feb 17
First Quarter

Hourly Weather History & Observations

Time (CST) Temp. Windchill Dew Point Humidity Pressure Visibility Wind Dir Wind Speed Gust Speed Precip Events Conditions
12:15 AM 8.6 °F - -4.0 °F 57% 30.27 in 10.0 mi Calm Calm - N/A   Overcast
12:34 AM 8.6 °F - -4.0 °F 57% 30.26 in 10.0 mi Calm Calm - N/A   Overcast
12:54 AM 8.6 °F - -4.0 °F 57% 30.26 in 10.0 mi Calm Calm - N/A   Overcast
1:15 AM 8.6 °F - -4.0 °F 57% 30.26 in 10.0 mi Calm Calm - N/A   Overcast
1:34 AM 10.4 °F - -2.2 °F 57% 30.25 in 10.0 mi Calm Calm - N/A   Overcast
1:54 AM 10.4 °F - -2.2 °F 57% 30.25 in 10.0 mi Calm Calm - N/A   Overcast
2:15 AM 10.4 °F - -0.4 °F 62% 30.25 in 10.0 mi Calm Calm - N/A   Overcast
2:34 AM 10.4 °F - -0.4 °F 62% 30.25 in 10.0 mi Calm Calm - N/A   Overcast
2:54 AM 10.4 °F - -0.4 °F 62% 30.24 in 10.0 mi Calm Calm - N/A   Overcast
3:15 AM 10.4 °F - -0.4 °F 62% 30.24 in 10.0 mi Calm Calm - N/A   Overcast
3:34 AM 10.4 °F - 1.4 °F 67% 30.23 in 10.0 mi Calm Calm - N/A   Overcast
3:54 AM 10.4 °F - 1.4 °F 67% 30.22 in 10.0 mi Calm Calm - N/A   Overcast
4:15 AM 10.4 °F - 1.4 °F 67% 30.21 in 10.0 mi Calm Calm - N/A   Overcast
4:34 AM 10.4 °F - 1.4 °F 67% 30.20 in 10.0 mi Calm Calm - N/A   Overcast
4:54 AM 10.4 °F - 1.4 °F 67% 30.20 in 10.0 mi Calm Calm - N/A   Overcast
5:15 AM 12.2 °F 6.1 °F 3.2 °F 67% 30.19 in 5.0 mi SSW 3.5 mph - N/A Snow Light Snow
5:34 AM 10.4 °F - 3.2 °F 73% 30.19 in 4.0 mi Calm Calm - N/A Snow Light Snow
5:54 AM 10.4 °F - 5.0 °F 79% 30.18 in 3.0 mi Calm Calm - N/A Snow Light Snow
6:15 AM 10.4 °F - 5.0 °F 79% 30.18 in 3.0 mi Calm Calm - N/A Snow Light Snow
6:34 AM 10.4 °F - 5.0 °F 79% 30.19 in 4.0 mi Calm Calm - N/A Snow Light Snow
6:54 AM 10.4 °F - 5.0 °F 79% 30.18 in 4.0 mi Calm Calm - N/A Snow Light Snow
7:14 AM 10.4 °F - 5.0 °F 79% 30.17 in 4.0 mi Calm Calm - N/A Snow Light Snow
7:34 AM 14.0 °F - 8.6 °F 79% 30.17 in 7.0 mi Calm Calm - N/A Snow Light Snow
7:55 AM 14.0 °F - 8.6 °F 79% 30.17 in 10.0 mi Calm Calm - N/A Snow Light Snow
8:14 AM 14.0 °F - 8.6 °F 79% 30.17 in 10.0 mi Calm Calm - N/A Snow Light Snow
8:34 AM 14.0 °F - 8.6 °F 79% 30.17 in 10.0 mi Calm Calm - N/A Snow Light Snow
8:55 AM 14.0 °F - 8.6 °F 79% 30.17 in 7.0 mi Calm Calm - N/A Snow Light Snow
9:14 AM 14.0 °F 8.2 °F 8.6 °F 79% 30.17 in 10.0 mi WSW 3.5 mph - N/A Snow Light Snow
9:34 AM 14.0 °F 8.2 °F 8.6 °F 79% 30.17 in 10.0 mi WSW 3.5 mph - N/A   Overcast
9:55 AM 15.8 °F 10.2 °F 8.6 °F 73% 30.17 in 10.0 mi WSW 3.5 mph - N/A   Overcast
10:14 AM 17.6 °F 10.7 °F 8.6 °F 68% 30.17 in 10.0 mi West 4.6 mph - N/A   Mostly Cloudy
10:35 AM 17.6 °F 8.2 °F 10.4 °F 73% 30.17 in 10.0 mi WNW 6.9 mph - N/A   Mostly Cloudy
10:54 AM 19.4 °F 11.5 °F 10.4 °F 68% 30.16 in 10.0 mi NW 5.8 mph - N/A Snow Light Snow
11:14 AM 19.4 °F 7.2 °F 10.4 °F 68% 30.16 in 10.0 mi NW 11.5 mph - N/A   Overcast
11:35 AM 19.4 °F 8.6 °F 10.4 °F 68% 30.16 in 10.0 mi WNW 9.2 mph 16.1 mph N/A   Overcast
11:54 AM 19.4 °F 8.6 °F 10.4 °F 68% 30.15 in 5.0 mi WNW 9.2 mph - N/A Snow Light Snow
12:14 PM 19.4 °F 9.5 °F 10.4 °F 68% 30.14 in 4.0 mi WNW 8.1 mph - N/A Snow Light Snow
12:35 PM 19.4 °F 6.6 °F 10.4 °F 68% 30.14 in 10.0 mi NW 12.7 mph - N/A Snow Light Snow
12:54 PM 19.4 °F 6.6 °F 8.6 °F 63% 30.14 in 10.0 mi NW 12.7 mph - N/A Snow Light Snow
1:14 PM 19.4 °F 7.9 °F 8.6 °F 63% 30.14 in 10.0 mi WNW 10.4 mph 18.4 mph N/A   Overcast
1:35 PM 19.4 °F 6.0 °F 8.6 °F 63% 30.13 in 10.0 mi WNW 13.8 mph 18.4 mph N/A   Overcast
1:54 PM 19.4 °F 5.5 °F 6.8 °F 58% 30.12 in 10.0 mi WNW 15.0 mph 18.4 mph N/A   Overcast
2:14 PM 19.4 °F 4.1 °F 5.0 °F 54% 30.13 in 5.0 mi WNW 18.4 mph 23.0 mph N/A   Haze
2:35 PM 19.4 °F 4.1 °F 6.8 °F 58% 30.14 in 10.0 mi NW 18.4 mph 27.6 mph N/A   Overcast
2:54 PM 19.4 °F 4.1 °F 6.8 °F 58% 30.15 in 7.0 mi NW 18.4 mph 24.2 mph N/A   Overcast
3:14 PM 19.4 °F 5.5 °F 8.6 °F 63% 30.16 in 7.0 mi NNW 15.0 mph 21.9 mph N/A Snow Light Snow
3:35 PM 17.6 °F 2.7 °F 8.6 °F 68% 30.17 in 4.0 mi NNW 16.1 mph 23.0 mph N/A Snow Light Snow
3:54 PM 15.8 °F 0.3 °F 5.0 °F 62% 30.19 in 10.0 mi NNW 16.1 mph 29.9 mph N/A   Mostly Cloudy
4:14 PM 15.8 °F 2.1 °F 5.0 °F 62% 30.20 in 10.0 mi NW 12.7 mph 25.3 mph N/A   Mostly Cloudy
4:35 PM 15.8 °F -2.3 °F 5.0 °F 62% 30.22 in 5.0 mi NW 23.0 mph 29.9 mph N/A Snow Light Snow
4:54 PM 14.0 °F -4.3 °F 1.4 °F 57% 30.24 in 10.0 mi NNW 21.9 mph 31.1 mph N/A   Scattered Clouds
5:14 PM 14.0 °F -2.0 °F 3.2 °F 62% 30.26 in 7.0 mi NNW 16.1 mph 26.5 mph N/A   Mostly Cloudy
5:35 PM 14.0 °F -0.2 °F 3.2 °F 62% 30.28 in 10.0 mi NNW 12.7 mph 18.4 mph N/A   Overcast
5:54 PM 10.4 °F -7.2 °F -4.0 °F 52% 30.31 in 10.0 mi NNW 17.3 mph 29.9 mph N/A   Scattered Clouds
6:14 PM 8.6 °F -8.3 °F -5.8 °F 52% 30.32 in 10.0 mi NW 15.0 mph 20.7 mph N/A   Clear
6:35 PM 8.6 °F -9.5 °F -5.8 °F 52% 30.36 in 10.0 mi NNW 17.3 mph 26.5 mph N/A   Clear
6:54 PM 8.6 °F -8.3 °F -5.8 °F 52% 30.38 in 10.0 mi NNW 15.0 mph 23.0 mph N/A   Clear
7:14 PM 8.6 °F -8.3 °F -5.8 °F 52% 30.39 in 10.0 mi NNW 15.0 mph 21.9 mph N/A   Scattered Clouds
7:34 PM 6.8 °F -7.8 °F -9.4 °F 48% 30.40 in 10.0 mi North 10.4 mph 19.6 mph N/A   Scattered Clouds
7:54 PM 5.0 °F -10.0 °F -9.4 °F 52% 30.42 in 10.0 mi North 10.4 mph 19.6 mph N/A   Clear
8:15 PM 5.0 °F -6.9 °F -9.4 °F 52% 30.44 in 10.0 mi North 6.9 mph - N/A   Clear
8:34 PM 3.2 °F -13.9 °F -13.0 °F 47% 30.45 in 10.0 mi North 12.7 mph 23.0 mph N/A   Clear
8:55 PM 3.2 °F -11.3 °F -14.8 °F 43% 30.47 in 10.0 mi North 9.2 mph - N/A   Clear
9:15 PM 1.4 °F -15.3 °F -14.8 °F 47% 30.49 in 10.0 mi North 11.5 mph 20.7 mph N/A   Clear
9:34 PM 1.4 °F -12.5 °F -14.8 °F 47% 30.51 in 10.0 mi North 8.1 mph 18.4 mph N/A   Clear
9:55 PM 1.4 °F -8.3 °F -14.8 °F 47% 30.51 in 10.0 mi North 4.6 mph - N/A   Clear
10:15 PM 1.4 °F -14.5 °F -14.8 °F 47% 30.52 in 10.0 mi North 10.4 mph - N/A   Clear
10:34 PM -0.4 °F -13.4 °F -14.8 °F 51% 30.53 in 10.0 mi North 6.9 mph - N/A   Clear
10:55 PM -0.4 °F -12.0 °F -14.8 °F 51% 30.54 in 10.0 mi North 5.8 mph - N/A   Clear
11:15 PM -0.4 °F -16.7 °F -14.8 °F 51% 30.55 in 10.0 mi NNW 10.4 mph 16.1 mph N/A   Clear
11:34 PM -0.4 °F -13.4 °F -14.8 °F 51% 30.56 in 10.0 mi NNW 6.9 mph - N/A   Clear
11:55 PM -0.4 °F -12.0 °F -16.6 °F 46% 30.57 in 10.0 mi North 5.8 mph 17.3 mph N/A   Clear